TimeHST,TemperatureF,Dew PointF,Humidity,Sea Level PressureIn,VisibilityMPH,Wind Direction,Wind SpeedMPH,Gust SpeedMPH,PrecipitationIn,Events,Conditions,WindDirDegrees,DateUTC
12:53 AM,77.0,63.0,62,29.93,10.0,Calm,Calm,-,N/A,,Clear,0,2013-10-16 10:53:00
1:53 AM,77.0,64.0,64,29.91,10.0,East,6.9,-,N/A,,Clear,90,2013-10-16 11:53:00
2:53 AM,75.0,63.0,66,29.90,10.0,Calm,Calm,-,N/A,,Partly Cloudy,0,2013-10-16 12:53:00
3:53 AM,73.9,62.1,66,29.90,10.0,Calm,Calm,-,N/A,,Clear,0,2013-10-16 13:53:00
4:53 AM,75.0,61.0,62,29.90,10.0,North,5.8,-,N/A,,Clear,350,2013-10-16 14:53:00
5:53 AM,75.9,61.0,60,29.91,10.0,NNE,8.1,-,N/A,,Clear,30,2013-10-16 15:53:00
6:53 AM,75.0,62.1,64,29.93,10.0,NE,9.2,-,N/A,,Clear,40,2013-10-16 16:53:00
7:53 AM,82.0,60.1,47,29.95,10.0,North,13.8,-,N/A,,Clear,10,2013-10-16 17:53:00
8:53 AM,82.0,63.0,52,29.96,10.0,ESE,4.6,-,N/A,,Clear,110,2013-10-16 18:53:00
9:53 AM,84.0,64.0,51,29.96,10.0,South,11.5,-,N/A,,Clear,190,2013-10-16 19:53:00
10:53 AM,84.0,66.9,56,29.96,10.0,South,11.5,-,N/A,,Clear,180,2013-10-16 20:53:00
11:53 AM,84.0,68.0,58,29.94,10.0,SSW,8.1,-,N/A,,Clear,210,2013-10-16 21:53:00
12:53 PM,84.0,70.0,63,29.91,10.0,SW,10.4,-,N/A,,Clear,230,2013-10-16 22:53:00
1:53 PM,84.9,71.1,63,29.90,10.0,SW,9.2,-,N/A,,Clear,230,2013-10-16 23:53:00
2:53 PM,84.0,71.1,65,29.89,10.0,SSW,11.5,-,N/A,,Clear,210,2013-10-17 00:53:00
3:53 PM,82.9,70.0,65,29.88,10.0,SSW,9.2,-,N/A,,Clear,210,2013-10-17 01:53:00
4:53 PM,82.0,71.1,69,29.89,10.0,SW,9.2,-,N/A,,Clear,230,2013-10-17 02:53:00
5:53 PM,81.0,70.0,69,29.91,10.0,SW,8.1,-,N/A,,Scattered Clouds,220,2013-10-17 03:53:00
6:53 PM,80.1,70.0,71,29.93,10.0,SW,5.8,-,N/A,,Mostly Cloudy,230,2013-10-17 04:53:00
7:53 PM,80.1,70.0,71,29.95,10.0,South,5.8,-,N/A,,Scattered Clouds,190,2013-10-17 05:53:00
8:53 PM,80.1,70.0,71,29.96,10.0,South,3.5,-,N/A,,Mostly Cloudy,190,2013-10-17 06:53:00
9:53 PM,80.1,70.0,71,29.98,10.0,Calm,Calm,-,N/A,,Overcast,0,2013-10-17 07:53:00
10:53 PM,80.1,70.0,71,29.98,10.0,Calm,Calm,-,N/A,,Clear,0,2013-10-17 08:53:00
11:53 PM,78.1,70.0,76,29.97,10.0,East,3.5,-,N/A,,Clear,80,2013-10-17 09:53:00